Weather History for Montreal Mirabel, QC

Change the Weather History Date:

Thursday, November 7, 2013

  Actual Average Record
Temperature  
Mean Temperature 45 °F -  
Max Temperature 55 °F 41 °F 60 °F (2008)
Min Temperature 35 °F 27 °F 14 °F (2002)
Degree Days  
Heating Degree Days 20    
Moisture  
Dew Point 36 °F    
Average Humidity 70    
Maximum Humidity 94    
Minimum Humidity 52    
Precipitation  
Precipitation 0.00 in - - ()
Sea Level Pressure  
Sea Level Pressure 29.77 in    
Wind  
Wind Speed 10 mph ()    
Max Wind Speed 20 mph    
Max Gust Speed 30 mph    
Visibility 15.0 miles    
Events Rain    
Averages and records for this station are not official NWS values.
T = Trace of Precipitation, MM = Missing Value Source: Averaged Metar Reports

Daily Weather History Graph

Daily Weather History Graph

Search for Another Location

Airport:

Trip Planner

Search our weather history database for the weather conditions in past years. The results will help you decide how hot, cold, wet, or windy it might be!

Date:

Astronomy

Nov. 07, 2013 Rise Set
Actual Time 6:44 AM EST 4:34 PM EST
Civil Twilight 6:13 AM EST 5:05 PM EST
Nautical Twilight 5:37 AM EST 5:41 PM EST
Astronomical Twilight 5:02 AM EST 6:16 PM EST
Moon 10:54 AM EST (11/7) 8:40 PM EST (11/7)
Length of Visible Light 10h 52m
Length of Day
9h 49m
Waxing Crescent, 22% of the Moon is Illuminated
Nov 7
Waxing Crescent
Nov 10
First Quarter
Nov 17
Full
Nov 25
Last Quarter
Dec 2
New

Hourly Weather History & Observations

Time (EST) Temp. Windchill Dew Point Humidity Pressure Visibility Wind Dir Wind Speed Gust Speed Precip Events Conditions
12:00 AM 51.8 °F - 50.0 °F 94% 29.70 in 15.0 mi SW 4.6 mph - N/A Rain Light Rain
1:00 AM 55.4 °F - 51.8 °F 88% 29.68 in 15.0 mi SW 19.6 mph 25.3 mph N/A Rain Light Rain
2:00 AM 55.4 °F - 51.8 °F 88% 29.67 in 15.0 mi SW 13.8 mph 24.2 mph N/A Rain Light Rain
3:00 AM 55.4 °F - 51.8 °F 88% 29.64 in 15.0 mi SW 13.8 mph 28.8 mph N/A Rain Light Rain
4:00 AM 55.4 °F - 51.8 °F 88% 29.62 in 15.0 mi SW 17.3 mph 25.3 mph N/A Rain Light Rain
5:00 AM 55.4 °F - 51.8 °F 88% 29.61 in 15.0 mi SW 16.1 mph 29.9 mph N/A Rain Light Rain
6:00 AM 53.6 °F - 50.0 °F 88% 29.62 in 15.0 mi WSW 12.7 mph 25.3 mph N/A Rain Light Rain
7:00 AM 51.8 °F - 46.4 °F 82% 29.66 in 25.0 mi West 12.7 mph 21.9 mph N/A Rain Light Rain
7:38 AM 48.2 °F - 41.0 °F 76% 29.69 in 45.0 mi West 5.8 mph - N/A   Overcast
8:00 AM 46.4 °F 41.5 °F 41.0 °F 81% 29.72 in 45.0 mi West 10.4 mph 17.3 mph N/A   Overcast
9:00 AM 42.8 °F 37.5 °F 33.8 °F 70% 29.78 in 45.0 mi WNW 9.2 mph 18.4 mph N/A   Overcast
10:00 AM 42.8 °F 35.4 °F 30.2 °F 61% 29.79 in 45.0 mi West 15.0 mph 23.0 mph N/A   Mostly Cloudy
11:00 AM 42.8 °F 37.5 °F 30.2 °F 61% 29.80 in 45.0 mi WNW 9.2 mph 19.6 mph N/A   Mostly Cloudy
12:00 PM 44.6 °F 38.8 °F 32.0 °F 61% 29.80 in 45.0 mi WNW 11.5 mph 18.4 mph N/A   Mostly Cloudy
1:00 PM 44.6 °F 39.2 °F 30.2 °F 57% 29.80 in 45.0 mi West 10.4 mph - N/A   Mostly Cloudy
1:38 PM 42.8 °F 37.0 °F 30.2 °F 61% 29.80 in 45.0 mi WSW 10.4 mph 21.9 mph N/A Rain Light Rain Showers
2:00 PM 42.8 °F 35.8 °F 30.2 °F 61% 29.81 in 45.0 mi West 13.8 mph 23.0 mph N/A   Mostly Cloudy
3:00 PM 39.2 °F 32.5 °F 28.4 °F 65% 29.83 in 45.0 mi NW 10.4 mph 21.9 mph N/A Rain Light Rain Showers
4:00 PM 39.2 °F 34.2 °F 24.8 °F 56% 29.83 in 45.0 mi West 6.9 mph 20.7 mph N/A   Overcast
5:00 PM 39.2 °F 35.9 °F 24.8 °F 56% 29.85 in 25.0 mi West 4.6 mph - N/A   Overcast
6:00 PM 39.2 °F 33.6 °F 23.0 °F 52% 29.86 in 25.0 mi WNW 8.1 mph 19.6 mph N/A   Overcast
7:00 PM 37.4 °F 32.8 °F 23.0 °F 56% 29.87 in 25.0 mi WSW 5.8 mph - N/A   Overcast
8:00 PM 37.4 °F 33.8 °F 23.0 °F 56% 29.87 in 25.0 mi WSW 4.6 mph - N/A   Overcast
9:00 PM 35.6 °F 30.7 °F 24.8 °F 65% 29.87 in 25.0 mi WSW 5.8 mph - N/A   Overcast
10:00 PM 35.6 °F 30.7 °F 24.8 °F 65% 29.87 in 25.0 mi SW 5.8 mph - N/A   Overcast
11:00 PM 35.6 °F 29.9 °F 24.8 °F 65% 29.85 in 25.0 mi WSW 6.9 mph - N/A   Overcast